Time,TemperatureF,DewpointF,PressureIn,WindDirection,WindDirectionDegrees,WindSpeedMPH,WindSpeedGustMPH,Humidity,HourlyPrecipIn,Conditions,Clouds,dailyrainin,SoftwareType,DateUTC
2013-04-10 00:22:00,39.0,9.0,30.12,North,10,6.0,15.0,28,0.00,,,-99.99,,2013-04-10 07:22:00,
2013-04-10 00:32:00,39.0,9.0,30.12,North,10,6.0,15.0,28,0.00,,,-99.99,,2013-04-10 07:32:00,
2013-04-10 00:42:00,39.0,9.0,30.12,North,10,6.0,15.0,28,0.00,,,-99.99,,2013-04-10 07:42:00,
2013-04-10 01:22:00,38.0,9.0,30.14,NNE,30,4.0,11.0,29,0.00,,,-99.99,,2013-04-10 08:22:00,
2013-04-10 01:32:00,38.0,9.0,30.14,NNE,30,4.0,11.0,29,0.00,,,-99.99,,2013-04-10 08:32:00,
2013-04-10 01:42:00,38.0,9.0,30.14,NNE,30,4.0,11.0,29,0.00,,,-99.99,,2013-04-10 08:42:00,
2013-04-10 02:22:00,37.0,8.0,30.13,NNE,20,5.0,11.0,30,0.00,,,-99.99,,2013-04-10 09:22:00,
2013-04-10 02:32:00,37.0,8.0,30.13,NNE,20,5.0,11.0,30,0.00,,,-99.99,,2013-04-10 09:32:00,
2013-04-10 02:42:00,37.0,8.0,30.13,NNE,20,5.0,11.0,30,0.00,,,-99.99,,2013-04-10 09:42:00,
2013-04-10 03:23:00,36.0,8.0,30.12,North,10,6.0,10.0,31,0.00,,,-99.99,,2013-04-10 10:23:00,
2013-04-10 03:33:00,36.0,8.0,30.12,North,10,6.0,10.0,31,0.00,,,-99.99,,2013-04-10 10:33:00,
2013-04-10 03:42:00,36.0,8.0,30.12,North,10,6.0,10.0,31,0.00,,,-99.99,,2013-04-10 10:42:00,
2013-04-10 04:22:00,36.0,8.0,30.11,NNE,20,6.0,16.0,31,0.00,,,-99.99,,2013-04-10 11:22:00,
2013-04-10 04:32:00,36.0,8.0,30.11,NNE,20,6.0,16.0,31,0.00,,,-99.99,,2013-04-10 11:32:00,
2013-04-10 04:42:00,36.0,8.0,30.11,NNE,20,6.0,16.0,31,0.00,,,-99.99,,2013-04-10 11:42:00,
2013-04-10 05:22:00,37.0,7.0,30.10,North,360,9.0,18.0,28,0.00,,,-99.99,,2013-04-10 12:22:00,
2013-04-10 05:32:00,37.0,7.0,30.10,North,360,9.0,18.0,28,0.00,,,-99.99,,2013-04-10 12:32:00,
2013-04-10 05:42:00,37.0,7.0,30.10,North,360,9.0,18.0,28,0.00,,,-99.99,,2013-04-10 12:42:00,
2013-04-10 06:23:00,36.0,7.0,30.12,North,10,12.0,21.0,29,0.00,,,-99.99,,2013-04-10 13:23:00,
2013-04-10 06:32:00,36.0,7.0,30.12,North,10,12.0,21.0,29,0.00,,,-99.99,,2013-04-10 13:32:00,
2013-04-10 06:42:00,36.0,7.0,30.12,North,10,12.0,21.0,29,0.00,,,-99.99,,2013-04-10 13:42:00,
2013-04-10 07:22:00,37.0,6.0,30.16,North,10,12.0,21.0,27,0.00,,,-99.99,,2013-04-10 14:22:00,
2013-04-10 07:32:00,37.0,6.0,30.16,North,10,12.0,21.0,27,0.00,,,-99.99,,2013-04-10 14:32:00,
2013-04-10 07:42:00,37.0,6.0,30.16,North,10,12.0,21.0,27,0.00,,,-99.99,,2013-04-10 14:42:00,
2013-04-10 09:23:00,41.0,4.0,30.22,NE,40,11.0,26.0,21,0.00,,,-99.99,,2013-04-10 16:23:00,
2013-04-10 09:32:00,41.0,4.0,30.22,NE,40,11.0,26.0,21,0.00,,,-99.99,,2013-04-10 16:32:00,
2013-04-10 09:43:00,41.0,4.0,30.22,NE,40,11.0,26.0,21,0.00,,,-99.99,,2013-04-10 16:43:00,
2013-04-10 10:22:00,43.0,2.0,30.27,NE,40,12.0,18.0,18,0.00,,,-99.99,,2013-04-10 17:22:00,
2013-04-10 10:33:00,43.0,2.0,30.27,NE,40,12.0,18.0,18,0.00,,,-99.99,,2013-04-10 17:33:00,
2013-04-10 10:42:00,43.0,2.0,30.27,NE,40,12.0,18.0,18,0.00,,,-99.99,,2013-04-10 17:42:00,
2013-04-10 11:22:00,45.0,2.0,30.20,ENE,70,9.0,17.0,16,0.00,,,-99.99,,2013-04-10 18:22:00,
2013-04-10 11:33:00,45.0,2.0,30.20,ENE,70,9.0,17.0,16,0.00,,,-99.99,,2013-04-10 18:33:00,
2013-04-10 11:42:00,45.0,2.0,30.20,ENE,70,9.0,17.0,16,0.00,,,-99.99,,2013-04-10 18:42:00,
2013-04-10 12:22:00,46.0,0.0,30.18,NE,50,9.0,19.0,14,0.00,,,-99.99,,2013-04-10 19:22:00,
2013-04-10 12:33:00,46.0,0.0,30.18,NE,50,9.0,19.0,14,0.00,,,-99.99,,2013-04-10 19:33:00,
2013-04-10 12:42:00,46.0,0.0,30.18,NE,50,9.0,19.0,14,0.00,,,-99.99,,2013-04-10 19:42:00,
2013-04-10 13:23:00,49.0,-1.0,30.18,NNE,20,8.0,17.0,12,0.00,,,-99.99,,2013-04-10 20:23:00,
2013-04-10 13:32:00,49.0,-1.0,30.18,NNE,20,8.0,17.0,12,0.00,,,-99.99,,2013-04-10 20:32:00,
2013-04-10 13:42:00,49.0,-1.0,30.18,NNE,20,8.0,17.0,12,0.00,,,-99.99,,2013-04-10 20:42:00,
2013-04-10 14:22:00,51.0,-4.0,30.16,NNE,20,9.0,18.0,10,0.00,,,-99.99,,2013-04-10 21:22:00,
2013-04-10 14:32:00,51.0,-4.0,30.16,NNE,20,9.0,18.0,10,0.00,,,-99.99,,2013-04-10 21:32:00,
2013-04-10 14:42:00,51.0,-4.0,30.16,NNE,20,9.0,18.0,10,0.00,,,-99.99,,2013-04-10 21:42:00,
2013-04-10 17:22:00,54.0,6.0,30.10,ENE,60,4.0,10.0,14,0.00,,,-99.99,,2013-04-11 00:22:00,
2013-04-10 17:32:00,54.0,6.0,30.10,ENE,60,4.0,10.0,14,0.00,,,-99.99,,2013-04-11 00:32:00,
2013-04-10 17:42:00,54.0,6.0,30.10,ENE,60,4.0,10.0,14,0.00,,,-99.99,,2013-04-11 00:42:00,
2013-04-10 18:22:00,54.0,7.0,30.09,North,10,3.0,10.0,15,0.00,,,-99.99,,2013-04-11 01:22:00,
2013-04-10 18:32:00,54.0,7.0,30.09,North,10,3.0,10.0,15,0.00,,,-99.99,,2013-04-11 01:32:00,
2013-04-10 18:42:00,54.0,7.0,30.09,North,10,3.0,10.0,15,0.00,,,-99.99,,2013-04-11 01:42:00,
2013-04-10 19:22:00,52.0,9.0,30.09,North,360,1.0,5.0,17,0.00,,,-99.99,,2013-04-11 02:22:00,
2013-04-10 19:32:00,52.0,9.0,30.09,North,360,1.0,5.0,17,0.00,,,-99.99,,2013-04-11 02:32:00,
2013-04-10 19:42:00,52.0,9.0,30.09,North,360,1.0,5.0,17,0.00,,,-99.99,,2013-04-11 02:42:00,
2013-04-10 20:22:00,43.0,11.0,30.14,North,0,0.0,1.0,27,0.00,,,-99.99,,2013-04-11 03:22:00,
2013-04-10 20:33:00,43.0,11.0,30.14,North,0,0.0,1.0,27,0.00,,,-99.99,,2013-04-11 03:33:00,
2013-04-10 20:43:00,43.0,11.0,30.14,North,0,0.0,1.0,27,0.00,,,-99.99,,2013-04-11 03:43:00,
2013-04-10 21:22:00,37.0,12.0,30.21,North,-999,0.0,0.0,35,0.00,,,-99.99,,2013-04-11 04:22:00,
2013-04-10 21:33:00,37.0,12.0,30.21,North,-999,0.0,0.0,35,0.00,,,-99.99,,2013-04-11 04:33:00,
2013-04-10 21:42:00,37.0,12.0,30.21,North,-999,0.0,0.0,35,0.00,,,-99.99,,2013-04-11 04:42:00,
2013-04-10 22:22:00,34.0,11.0,30.22,North,-999,0.0,0.0,38,0.00,,,-99.99,,2013-04-11 05:22:00,
2013-04-10 22:32:00,34.0,11.0,30.22,North,-999,0.0,0.0,38,0.00,,,-99.99,,2013-04-11 05:32:00,
2013-04-10 22:42:00,34.0,11.0,30.22,North,-999,0.0,0.0,38,0.00,,,-99.99,,2013-04-11 05:42:00,
2013-04-10 23:22:00,32.0,11.0,30.22,North,-999,0.0,0.0,41,0.00,,,-99.99,,2013-04-11 06:22:00,
2013-04-10 23:32:00,32.0,11.0,30.22,North,-999,0.0,0.0,41,0.00,,,-99.99,,2013-04-11 06:32:00,
2013-04-10 23:42:00,32.0,11.0,30.22,North,-999,0.0,0.0,41,0.00,,,-99.99,,2013-04-11 06:42:00,